sat.trackr.live / text

‹ back to catalog

STARLINK-11410 [DTC]

NORAD 61946 · 2024-209H

PAYLOAD ACTIVE UNKNOWN

§ Identity

Operator
Country
US
Launch date
2024-11-14
Launch site
AFWTR
Launch vehicle
Mass (kg)
RCS (m²)

Purposes: comms

External: N2YO · Heavens-Above · Gunter

§ Orbital elements

Epoch: 2026-05-25T00:17:19.667616Z

Period
91.73 min
Inclination
53.1571°
Eccentricity
0.0000818
Mean motion
15.69767265 rev/d
Perigee alt
359.0 km
Apogee alt
360.1 km
Semi-major
6,737.7 km
B*
1.1161e-3
RAAN
355.1328°
Arg perigee
88.2957°
Mean anomaly
271.8155°
Rev number
8,870

§ Raw data

STARLINK-11410 [DTC]1 61946U 24209H   26145.01203319  .00137215  00000+0  11161-2 0  99902 61946  53.1571 355.1328 0000818  88.2957 271.8155 15.69767265 88709

JSON: /api/v1/satellites/61946 · /tle

For live sub-satellite position, see the globe view (requires WebGL).

§ Visibility from observer

Set your observer location to see the next 7 days of passes ≥ 10°. The values pass through the URL so the page stays shareable.

No JS? Fill the form by hand. The geolocation button needs JavaScript.